Time,TemperatureF,DewpointF,PressureIn,WindDirection,WindDirectionDegrees,WindSpeedMPH,WindSpeedGustMPH,Humidity,HourlyPrecipIn,Conditions,Clouds,dailyrainin,SoftwareType,DateUTC
2013-03-09 00:00:00,40.3,20.1,28.14,NNW,338,0.0,4.0,44,0.00,,---,0.00,VWS V14.01,2013-03-09 05:00:00,
2013-03-09 00:01:00,40.3,20.1,28.14,North,0,0.9,0.9,44,0.00,,---,0.00,VWS V14.01,2013-03-09 05:01:00,
2013-03-09 00:06:00,40.3,20.1,28.14,SSE,158,0.0,0.0,44,0.00,,---,0.00,VWS V14.01,2013-03-09 05:06:00,
2013-03-09 00:11:00,40.3,20.1,28.14,WSW,248,0.9,0.9,44,0.00,,---,0.00,VWS V14.01,2013-03-09 05:11:00,
2013-03-09 00:16:00,40.1,20.0,28.14,WNW,292,2.2,2.2,44,0.00,,---,0.00,VWS V14.01,2013-03-09 05:16:00,
2013-03-09 00:21:00,40.1,20.0,28.14,WNW,292,0.9,0.9,44,0.00,,---,0.00,VWS V14.01,2013-03-09 05:21:00,
2013-03-09 00:26:00,39.9,19.8,28.14,SSE,158,1.1,1.1,44,0.00,,---,0.00,VWS V14.01,2013-03-09 05:26:00,
2013-03-09 00:31:00,40.1,20.5,28.14,NE,45,1.6,2.2,45,0.00,,---,0.00,VWS V14.01,2013-03-09 05:31:00,
2013-03-09 00:36:00,39.9,20.3,28.14,South,180,0.0,2.2,45,0.00,,---,0.00,VWS V14.01,2013-03-09 05:36:00,
2013-03-09 00:41:00,39.9,20.3,28.14,WSW,248,1.3,2.2,45,0.00,,---,0.00,VWS V14.01,2013-03-09 05:41:00,
2013-03-09 00:46:00,39.9,20.3,28.14,WNW,292,2.0,3.8,45,0.00,,---,0.00,VWS V14.01,2013-03-09 05:46:00,
2013-03-09 00:52:00,40.1,20.5,28.14,SSW,202,0.0,2.7,45,0.00,,---,0.00,VWS V14.01,2013-03-09 05:52:00,
2013-03-09 00:57:00,40.1,20.5,28.14,West,270,2.5,2.5,45,0.00,,---,0.00,VWS V14.01,2013-03-09 05:57:00,
2013-03-09 01:02:00,40.3,20.6,28.14,WNW,292,2.0,3.8,45,0.00,,---,0.00,VWS V14.01,2013-03-09 06:02:00,
2013-03-09 01:07:00,40.5,20.8,28.14,ESE,112,3.1,3.1,45,0.00,,---,0.00,VWS V14.01,2013-03-09 06:07:00,
2013-03-09 01:12:00,40.5,21.3,28.14,SE,135,2.0,2.0,46,0.00,,---,0.00,VWS V14.01,2013-03-09 06:12:00,
2013-03-09 01:17:00,40.5,21.3,28.14,SW,225,0.0,3.1,46,0.00,,---,0.00,VWS V14.01,2013-03-09 06:17:00,
2013-03-09 01:22:00,40.5,21.3,28.11,SSW,202,0.0,4.0,46,0.00,,---,0.00,VWS V14.01,2013-03-09 06:22:00,
2013-03-09 01:27:00,40.5,21.3,28.11,South,180,2.0,2.0,46,0.00,,---,0.00,VWS V14.01,2013-03-09 06:27:00,
2013-03-09 01:32:00,40.5,21.3,28.11,SSW,202,1.1,2.2,46,0.00,,---,0.00,VWS V14.01,2013-03-09 06:32:00,
2013-03-09 01:37:00,40.5,21.3,28.11,ENE,68,0.0,1.3,46,0.00,,---,0.00,VWS V14.01,2013-03-09 06:37:00,
2013-03-09 01:42:00,40.5,21.3,28.11,ENE,68,0.9,1.6,46,0.00,,---,0.00,VWS V14.01,2013-03-09 06:42:00,
2013-03-09 01:47:00,40.3,21.2,28.11,WSW,248,1.6,1.6,46,0.00,,---,0.00,VWS V14.01,2013-03-09 06:47:00,
2013-03-09 01:52:00,40.3,21.2,28.11,South,180,4.3,4.3,46,0.00,,---,0.00,VWS V14.01,2013-03-09 06:52:00,
2013-03-09 01:57:00,39.9,20.8,28.11,SSW,202,0.9,2.5,46,0.00,,---,0.00,VWS V14.01,2013-03-09 06:57:00,
2013-03-09 02:03:00,39.9,20.8,28.11,WNW,292,1.3,1.3,46,0.00,,---,0.00,VWS V14.01,2013-03-09 07:03:00,
2013-03-09 02:08:00,39.9,20.8,28.11,SW,225,0.0,1.3,46,0.00,,---,0.00,VWS V14.01,2013-03-09 07:08:00,
2013-03-09 02:13:00,39.7,21.2,28.11,SE,135,3.6,3.6,47,0.00,,---,0.00,VWS V14.01,2013-03-09 07:13:00,
2013-03-09 02:18:00,39.6,21.0,28.11,East,90,0.9,2.5,47,0.00,,---,0.00,VWS V14.01,2013-03-09 07:18:00,
2013-03-09 02:23:00,39.6,21.0,28.11,NNW,338,3.4,3.4,47,0.00,,---,0.00,VWS V14.01,2013-03-09 07:23:00,
2013-03-09 02:28:00,39.6,21.0,28.11,East,90,2.5,3.4,47,0.00,,---,0.00,VWS V14.01,2013-03-09 07:28:00,
2013-03-09 02:33:00,39.7,21.2,28.11,SSW,202,1.3,3.1,47,0.00,,---,0.00,VWS V14.01,2013-03-09 07:33:00,
2013-03-09 02:38:00,39.7,21.2,28.11,WSW,248,1.6,2.9,47,0.00,,---,0.00,VWS V14.01,2013-03-09 07:38:00,
2013-03-09 02:43:00,39.9,20.8,28.11,ENE,68,1.3,3.6,46,0.00,,---,0.00,VWS V14.01,2013-03-09 07:43:00,
2013-03-09 02:48:00,39.9,20.8,28.11,South,180,1.6,2.0,46,0.00,,---,0.00,VWS V14.01,2013-03-09 07:48:00,
2013-03-09 02:53:00,39.9,20.8,28.11,ESE,112,1.6,4.3,46,0.00,,---,0.00,VWS V14.01,2013-03-09 07:53:00,
2013-03-09 02:58:00,39.9,20.8,28.11,ESE,112,0.9,4.3,46,0.00,,---,0.00,VWS V14.01,2013-03-09 07:58:00,
2013-03-09 03:03:00,39.9,20.8,28.11,ENE,68,0.9,2.7,46,0.00,,---,0.00,VWS V14.01,2013-03-09 08:03:00,
2013-03-09 03:08:00,39.7,20.7,28.08,SSE,158,3.8,3.8,46,0.00,,---,0.00,VWS V14.01,2013-03-09 08:08:00,
2013-03-09 03:13:00,39.7,20.7,28.08,WSW,248,2.2,2.2,46,0.00,,---,0.00,VWS V14.01,2013-03-09 08:13:00,
2013-03-09 03:18:00,39.6,20.5,28.08,SE,135,3.8,3.8,46,0.00,,---,0.00,VWS V14.01,2013-03-09 08:18:00,
2013-03-09 03:23:00,39.4,20.3,28.08,West,270,2.7,3.6,46,0.00,,---,0.00,VWS V14.01,2013-03-09 08:23:00,
2013-03-09 03:28:00,39.2,20.7,28.08,SSW,202,0.0,1.1,47,0.00,,---,0.00,VWS V14.01,2013-03-09 08:28:00,
2013-03-09 03:33:00,39.0,20.5,28.08,South,180,2.0,2.2,47,0.00,,---,0.00,VWS V14.01,2013-03-09 08:33:00,
2013-03-09 03:38:00,39.0,20.5,28.08,SE,135,1.1,3.1,47,0.00,,---,0.00,VWS V14.01,2013-03-09 08:38:00,
2013-03-09 03:43:00,38.8,20.4,28.08,WSW,248,2.2,2.2,47,0.00,,---,0.00,VWS V14.01,2013-03-09 08:43:00,
2013-03-09 03:48:00,38.8,20.8,28.08,WNW,292,4.3,4.3,48,0.00,,---,0.00,VWS V14.01,2013-03-09 08:48:00,
2013-03-09 03:54:00,38.7,20.7,28.08,East,90,2.0,3.1,48,0.00,,---,0.00,VWS V14.01,2013-03-09 08:54:00,
2013-03-09 03:59:00,38.7,20.7,28.08,WNW,292,0.0,0.0,48,0.00,,---,0.00,VWS V14.01,2013-03-09 08:59:00,
2013-03-09 04:04:00,38.7,21.2,28.08,SSE,158,2.7,2.9,49,0.00,,---,0.00,VWS V14.01,2013-03-09 09:04:00,
2013-03-09 04:09:00,38.7,21.2,28.08,SE,135,1.3,2.2,49,0.00,,---,0.00,VWS V14.01,2013-03-09 09:09:00,
2013-03-09 04:14:00,38.7,21.2,28.08,SSE,158,1.1,2.2,49,0.00,,---,0.00,VWS V14.01,2013-03-09 09:14:00,
2013-03-09 04:19:00,38.7,21.2,28.08,West,270,0.9,7.2,49,0.00,,---,0.00,VWS V14.01,2013-03-09 09:19:00,
2013-03-09 04:24:00,38.7,21.2,28.08,WSW,248,0.0,0.9,49,0.00,,---,0.00,VWS V14.01,2013-03-09 09:24:00,
2013-03-09 04:29:00,38.7,21.2,28.08,ENE,68,2.0,2.2,49,0.00,,---,0.00,VWS V14.01,2013-03-09 09:29:00,
2013-03-09 04:34:00,38.7,21.2,28.08,SSW,202,1.3,1.3,49,0.00,,---,0.00,VWS V14.01,2013-03-09 09:34:00,
2013-03-09 04:39:00,38.5,21.0,28.08,ENE,68,0.0,2.0,49,0.00,,---,0.00,VWS V14.01,2013-03-09 09:39:00,
2013-03-09 04:44:00,38.5,21.0,28.08,NE,45,1.3,1.6,49,0.00,,---,0.00,VWS V14.01,2013-03-09 09:44:00,
2013-03-09 04:49:00,38.5,21.0,28.08,East,90,0.0,2.0,49,0.00,,---,0.00,VWS V14.01,2013-03-09 09:49:00,
2013-03-09 04:54:00,38.3,20.8,28.11,SSE,158,0.0,1.3,49,0.00,,---,0.00,VWS V14.01,2013-03-09 09:54:00,
2013-03-09 04:59:00,38.3,20.8,28.11,SSW,202,1.1,1.6,49,0.00,,---,0.00,VWS V14.01,2013-03-09 09:59:00,
2013-03-09 05:04:00,38.1,20.7,28.11,SSW,202,0.0,1.1,49,0.00,,---,0.00,VWS V14.01,2013-03-09 10:04:00,
2013-03-09 05:09:00,38.1,21.1,28.08,ESE,112,1.6,1.6,50,0.00,,---,0.00,VWS V14.01,2013-03-09 10:09:00,
2013-03-09 05:14:00,38.5,21.0,28.08,SSW,202,0.0,0.0,49,0.00,,---,0.00,VWS V14.01,2013-03-09 10:14:00,
2013-03-09 05:20:00,38.5,21.0,28.08,East,90,0.0,0.0,49,0.00,,---,0.00,VWS V14.01,2013-03-09 10:20:00,
2013-03-09 05:25:00,38.7,21.2,28.08,WNW,292,0.9,0.9,49,0.00,,---,0.00,VWS V14.01,2013-03-09 10:25:00,
2013-03-09 05:30:00,38.7,21.6,28.08,SSW,202,0.0,2.2,50,0.00,,---,0.00,VWS V14.01,2013-03-09 10:30:00,
2013-03-09 05:35:00,38.7,21.2,28.08,SW,225,4.0,4.0,49,0.00,,---,0.00,VWS V14.01,2013-03-09 10:35:00,
2013-03-09 05:40:00,38.7,21.2,28.11,ESE,112,2.0,2.0,49,0.00,,---,0.00,VWS V14.01,2013-03-09 10:40:00,
2013-03-09 05:45:00,38.5,21.5,28.11,WSW,248,0.9,0.9,50,0.00,,---,0.00,VWS V14.01,2013-03-09 10:45:00,
2013-03-09 05:50:00,38.5,21.5,28.11,SSW,202,0.0,2.2,50,0.00,,---,0.00,VWS V14.01,2013-03-09 10:50:00,
2013-03-09 05:55:00,38.1,21.1,28.11,SSE,158,1.3,2.7,50,0.00,,---,0.00,VWS V14.01,2013-03-09 10:55:00,
2013-03-09 06:00:00,37.9,21.0,28.11,NNE,22,1.6,1.6,50,0.00,,---,0.00,VWS V14.01,2013-03-09 11:00:00,
2013-03-09 06:05:00,37.8,20.8,28.11,SSW,202,0.0,0.0,50,0.00,,---,0.00,VWS V14.01,2013-03-09 11:05:00,
2013-03-09 06:10:00,37.6,21.1,28.11,East,90,1.3,2.7,51,0.00,,---,0.00,VWS V14.01,2013-03-09 11:10:00,
2013-03-09 06:15:00,37.4,20.9,28.11,WSW,248,0.0,0.0,51,0.00,,---,0.00,VWS V14.01,2013-03-09 11:15:00,
2013-03-09 06:20:00,37.6,21.1,28.11,SSW,202,0.9,0.9,51,0.00,,---,0.00,VWS V14.01,2013-03-09 11:20:00,
2013-03-09 06:25:00,37.6,21.1,28.14,South,180,0.0,0.0,51,0.00,,---,0.00,VWS V14.01,2013-03-09 11:25:00,
2013-03-09 06:30:00,37.4,20.9,28.14,NW,315,0.0,0.0,51,0.00,,---,0.00,VWS V14.01,2013-03-09 11:30:00,
2013-03-09 06:35:00,37.4,20.9,28.14,SW,225,0.0,0.0,51,0.00,,---,0.00,VWS V14.01,2013-03-09 11:35:00,
2013-03-09 06:40:00,37.4,20.9,28.14,NNW,338,0.0,0.0,51,0.00,,---,0.00,VWS V14.01,2013-03-09 11:40:00,
2013-03-09 06:45:00,37.4,21.4,28.14,South,180,0.0,0.0,52,0.00,,---,0.00,VWS V14.01,2013-03-09 11:45:00,
2013-03-09 06:50:00,37.2,21.2,28.14,East,90,0.0,0.0,52,0.00,,---,0.00,VWS V14.01,2013-03-09 11:50:00,
2013-03-09 06:55:00,37.2,21.7,28.14,NNW,338,0.0,0.0,53,0.00,,---,0.00,VWS V14.01,2013-03-09 11:55:00,
2013-03-09 07:00:00,37.2,21.7,28.14,East,90,0.0,0.0,53,0.00,,---,0.00,VWS V14.01,2013-03-09 12:00:00,
2013-03-09 07:05:00,37.2,21.7,28.14,East,90,0.0,0.0,53,0.00,,---,0.00,VWS V14.01,2013-03-09 12:05:00,
2013-03-09 07:10:00,37.9,21.9,28.14,NE,45,0.0,0.0,52,0.00,,---,0.00,VWS V14.01,2013-03-09 12:10:00,
2013-03-09 07:15:00,37.9,22.4,28.14,North,0,0.0,0.0,53,0.00,,---,0.00,VWS V14.01,2013-03-09 12:15:00,
2013-03-09 07:20:00,38.3,22.2,28.14,ESE,112,0.0,0.0,52,0.00,,---,0.00,VWS V14.01,2013-03-09 12:20:00,
2013-03-09 07:26:00,38.7,22.6,28.14,SSE,158,0.0,1.6,52,0.00,,---,0.00,VWS V14.01,2013-03-09 12:26:00,
2013-03-09 07:31:00,38.8,22.3,28.14,ESE,112,0.0,2.0,51,0.00,,---,0.00,VWS V14.01,2013-03-09 12:31:00,
2013-03-09 07:36:00,39.0,22.4,28.14,SSE,158,0.0,1.1,51,0.00,,---,0.00,VWS V14.01,2013-03-09 12:36:00,
2013-03-09 07:41:00,39.2,22.6,28.14,SE,135,0.0,1.1,51,0.00,,---,0.00,VWS V14.01,2013-03-09 12:41:00,
2013-03-09 07:46:00,39.4,22.3,28.14,East,90,1.6,1.6,50,0.00,,---,0.00,VWS V14.01,2013-03-09 12:46:00,
2013-03-09 07:51:00,39.7,22.6,28.14,North,0,0.9,0.9,50,0.00,,---,0.00,VWS V14.01,2013-03-09 12:51:00,
2013-03-09 07:56:00,39.9,22.8,28.14,East,90,1.1,1.1,50,0.00,,---,0.00,VWS V14.01,2013-03-09 12:56:00,
2013-03-09 08:01:00,40.3,22.7,28.14,ESE,112,0.0,0.0,49,0.00,,---,0.00,VWS V14.01,2013-03-09 13:01:00,
2013-03-09 08:06:00,40.6,23.0,28.14,East,90,0.0,1.1,49,0.00,,---,0.00,VWS V14.01,2013-03-09 13:06:00,
2013-03-09 08:11:00,41.2,23.0,28.14,East,90,1.6,1.6,48,0.00,,---,0.00,VWS V14.01,2013-03-09 13:11:00,
2013-03-09 08:16:00,41.5,23.3,28.14,East,90,0.9,2.5,48,0.00,,---,0.00,VWS V14.01,2013-03-09 13:16:00,
2013-03-09 08:21:00,42.1,22.8,28.14,ESE,112,0.9,4.0,46,0.00,,---,0.00,VWS V14.01,2013-03-09 13:21:00,
2013-03-09 08:26:00,42.6,23.8,28.14,East,90,0.0,0.0,47,0.00,,---,0.00,VWS V14.01,2013-03-09 13:26:00,
2013-03-09 08:31:00,43.3,24.0,28.14,East,90,0.0,1.6,46,0.00,,---,0.00,VWS V14.01,2013-03-09 13:31:00,
2013-03-09 08:36:00,43.9,24.5,28.14,SSE,158,0.0,1.6,46,0.00,,---,0.00,VWS V14.01,2013-03-09 13:36:00,
2013-03-09 08:41:00,44.8,24.8,28.14,ESE,112,0.0,2.0,45,0.00,,---,0.00,VWS V14.01,2013-03-09 13:41:00,
2013-03-09 08:46:00,45.3,24.7,28.14,East,90,2.5,4.7,44,0.00,,---,0.00,VWS V14.01,2013-03-09 13:46:00,
2013-03-09 08:51:00,45.5,24.9,28.14,ESE,112,2.0,2.0,44,0.00,,---,0.00,VWS V14.01,2013-03-09 13:51:00,
2013-03-09 08:56:00,46.0,25.4,28.14,North,0,0.0,2.0,44,0.00,,---,0.00,VWS V14.01,2013-03-09 13:56:00,
2013-03-09 09:01:00,46.2,24.4,28.14,SE,135,2.0,2.0,42,0.00,,---,0.00,VWS V14.01,2013-03-09 14:01:00,
2013-03-09 09:06:00,45.9,24.1,28.14,East,90,0.0,1.1,42,0.00,,---,0.00,VWS V14.01,2013-03-09 14:06:00,
2013-03-09 09:11:00,45.9,24.1,28.14,East,90,1.6,2.2,42,0.00,,---,0.00,VWS V14.01,2013-03-09 14:11:00,
2013-03-09 09:16:00,46.2,24.4,28.14,SSW,202,0.9,2.0,42,0.00,,---,0.00,VWS V14.01,2013-03-09 14:16:00,
2013-03-09 09:21:00,46.8,24.3,28.14,SSW,202,3.1,4.0,41,0.00,,---,0.00,VWS V14.01,2013-03-09 14:21:00,
2013-03-09 09:26:00,47.1,24.6,28.14,ENE,68,1.3,2.0,41,0.00,,---,0.00,VWS V14.01,2013-03-09 14:26:00,
2013-03-09 09:31:00,47.7,25.1,28.14,ESE,112,2.5,3.4,41,0.00,,---,0.00,VWS V14.01,2013-03-09 14:31:00,
2013-03-09 09:36:00,48.2,25.0,28.14,ESE,112,1.1,2.9,40,0.00,,---,0.00,VWS V14.01,2013-03-09 14:36:00,
2013-03-09 09:41:00,48.7,25.5,28.14,SSE,158,2.2,2.2,40,0.00,,---,0.00,VWS V14.01,2013-03-09 14:41:00,
2013-03-09 09:47:00,48.7,24.9,28.14,SSE,158,2.7,2.7,39,0.00,,---,0.00,VWS V14.01,2013-03-09 14:47:00,
2013-03-09 09:52:00,48.7,24.9,28.14,NW,315,3.4,3.4,39,0.00,,---,0.00,VWS V14.01,2013-03-09 14:52:00,
2013-03-09 09:57:00,49.1,25.2,28.14,East,90,0.0,2.2,39,0.00,,---,0.00,VWS V14.01,2013-03-09 14:57:00,
2013-03-09 10:02:00,49.8,25.9,28.14,SSE,158,1.3,2.9,39,0.00,,---,0.00,VWS V14.01,2013-03-09 15:02:00,
2013-03-09 10:07:00,49.8,25.9,28.14,ESE,112,1.6,1.6,39,0.00,,---,0.00,VWS V14.01,2013-03-09 15:07:00,
2013-03-09 10:12:00,49.6,25.7,28.14,NNE,22,2.5,2.5,39,0.00,,---,0.00,VWS V14.01,2013-03-09 15:12:00,
2013-03-09 10:17:00,50.2,26.2,28.14,SE,135,2.7,2.7,39,0.00,,---,0.00,VWS V14.01,2013-03-09 15:17:00,
2013-03-09 10:22:00,49.8,25.9,28.14,ESE,112,2.0,2.0,39,0.00,,---,0.00,VWS V14.01,2013-03-09 15:22:00,
2013-03-09 10:27:00,50.4,25.7,28.14,SSW,202,0.0,1.3,38,0.00,,---,0.00,VWS V14.01,2013-03-09 15:27:00,
2013-03-09 10:32:00,50.2,25.6,28.14,South,180,2.5,2.5,38,0.00,,---,0.00,VWS V14.01,2013-03-09 15:32:00,
2013-03-09 10:37:00,49.3,25.4,28.14,ESE,112,2.5,2.5,39,0.00,,---,0.00,VWS V14.01,2013-03-09 15:37:00,
2013-03-09 10:43:00,48.6,24.7,28.14,SSE,158,2.0,3.4,39,0.00,,---,0.00,VWS V14.01,2013-03-09 15:43:00,
2013-03-09 10:48:00,48.4,24.6,28.14,SSW,202,1.3,1.3,39,0.00,,---,0.00,VWS V14.01,2013-03-09 15:48:00,
2013-03-09 10:53:00,48.4,24.6,28.14,SSE,158,1.3,2.9,39,0.00,,---,0.00,VWS V14.01,2013-03-09 15:53:00,
2013-03-09 10:58:00,48.7,24.9,28.14,South,180,2.0,2.0,39,0.00,,---,0.00,VWS V14.01,2013-03-09 15:58:00,
2013-03-09 11:03:00,49.3,25.4,28.14,NW,315,1.6,2.9,39,0.00,,---,0.00,VWS V14.01,2013-03-09 16:03:00,
2013-03-09 11:08:00,49.5,26.2,28.17,NE,45,3.8,3.8,40,0.00,,---,0.00,VWS V14.01,2013-03-09 16:08:00,
2013-03-09 11:13:00,49.1,25.2,28.17,SE,135,2.5,3.4,39,0.00,,---,0.00,VWS V14.01,2013-03-09 16:13:00,
2013-03-09 11:18:00,49.5,26.2,28.17,WSW,248,1.3,1.3,40,0.00,,---,0.00,VWS V14.01,2013-03-09 16:18:00,
2013-03-09 11:23:00,50.0,26.0,28.14,SSE,158,0.9,0.9,39,0.00,,---,0.00,VWS V14.01,2013-03-09 16:23:00,
2013-03-09 11:28:00,49.8,26.5,28.14,NE,45,0.0,2.0,40,0.00,,---,0.00,VWS V14.01,2013-03-09 16:28:00,
2013-03-09 11:33:00,50.5,26.5,28.14,East,90,0.9,3.8,39,0.00,,---,0.00,VWS V14.01,2013-03-09 16:33:00,
2013-03-09 11:38:00,50.5,26.5,28.14,ENE,68,2.5,3.8,39,0.00,,---,0.00,VWS V14.01,2013-03-09 16:38:00,
2013-03-09 11:43:00,50.9,26.8,28.14,East,90,1.6,3.1,39,0.00,,---,0.00,VWS V14.01,2013-03-09 16:43:00,
2013-03-09 11:48:00,51.3,27.2,28.14,ENE,68,2.5,2.5,39,0.00,,---,0.00,VWS V14.01,2013-03-09 16:48:00,
2013-03-09 11:53:00,51.6,27.5,28.14,SE,135,2.5,2.7,39,0.00,,---,0.00,VWS V14.01,2013-03-09 16:53:00,
2013-03-09 11:59:00,52.0,27.2,28.14,ESE,112,2.5,2.9,38,0.00,,---,0.00,VWS V14.01,2013-03-09 16:59:00,
2013-03-09 12:04:00,52.5,27.7,28.14,SE,135,2.0,2.0,38,0.00,,---,0.00,VWS V14.01,2013-03-09 17:04:00,
2013-03-09 12:09:00,53.1,28.1,28.14,ENE,68,1.1,2.9,38,0.00,,---,0.00,VWS V14.01,2013-03-09 17:09:00,
2013-03-09 12:14:00,53.8,28.8,28.14,ESE,112,1.1,2.2,38,0.00,,---,0.00,VWS V14.01,2013-03-09 17:14:00,
2013-03-09 12:19:00,54.1,29.1,28.14,SSW,202,0.0,2.2,38,0.00,,---,0.00,VWS V14.01,2013-03-09 17:19:00,
2013-03-09 12:24:00,55.2,30.1,28.14,SE,135,2.0,2.0,38,0.00,,---,0.00,VWS V14.01,2013-03-09 17:24:00,
2013-03-09 12:29:00,55.6,29.7,28.14,SSE,158,3.8,4.7,37,0.00,,---,0.00,VWS V14.01,2013-03-09 17:29:00,
2013-03-09 12:34:00,56.8,30.9,28.14,SW,225,2.9,3.1,37,0.00,,---,0.00,VWS V14.01,2013-03-09 17:34:00,
2013-03-09 12:39:00,56.7,30.0,28.14,East,90,2.9,2.9,36,0.00,,---,0.00,VWS V14.01,2013-03-09 17:39:00,
2013-03-09 12:44:00,55.9,29.4,28.14,SW,225,0.0,0.0,36,0.00,,---,0.00,VWS V14.01,2013-03-09 17:44:00,
2013-03-09 12:49:00,55.4,28.9,28.14,East,90,2.0,2.0,36,0.00,,---,0.00,VWS V14.01,2013-03-09 17:49:00,
2013-03-09 12:54:00,54.5,28.8,28.14,South,180,0.0,1.1,37,0.00,,---,0.00,VWS V14.01,2013-03-09 17:54:00,
2013-03-09 12:59:00,53.8,28.1,28.14,East,90,2.9,3.4,37,0.00,,---,0.00,VWS V14.01,2013-03-09 17:59:00,
2013-03-09 13:04:00,53.6,28.0,28.14,East,90,0.0,0.0,37,0.00,,---,0.00,VWS V14.01,2013-03-09 18:04:00,
2013-03-09 13:10:00,53.8,28.1,28.14,SSE,158,0.0,2.5,37,0.00,,---,0.00,VWS V14.01,2013-03-09 18:10:00,
2013-03-09 13:15:00,53.8,28.1,28.14,SSE,158,1.1,1.1,37,0.00,,---,0.00,VWS V14.01,2013-03-09 18:15:00,
2013-03-09 13:20:00,54.0,28.3,28.14,SSW,202,1.3,2.0,37,0.00,,---,0.00,VWS V14.01,2013-03-09 18:20:00,
2013-03-09 13:25:00,54.1,28.5,28.14,East,90,0.0,1.1,37,0.00,,---,0.00,VWS V14.01,2013-03-09 18:25:00,
2013-03-09 13:30:00,55.0,29.3,28.14,ESE,112,0.9,1.6,37,0.00,,---,0.00,VWS V14.01,2013-03-09 18:30:00,
2013-03-09 13:35:00,55.6,29.7,28.14,SE,135,0.0,2.5,37,0.00,,---,0.00,VWS V14.01,2013-03-09 18:35:00,
2013-03-09 13:40:00,56.3,30.4,28.11,West,270,1.1,1.6,37,0.00,,---,0.00,VWS V14.01,2013-03-09 18:40:00,
2013-03-09 13:45:00,56.8,30.9,28.11,ESE,112,3.1,3.1,37,0.00,,---,0.00,VWS V14.01,2013-03-09 18:45:00,
2013-03-09 13:50:00,57.6,30.8,28.11,ESE,112,0.0,0.0,36,0.00,,---,0.00,VWS V14.01,2013-03-09 18:50:00,
2013-03-09 13:55:00,58.8,32.0,28.11,ESE,112,0.0,3.6,36,0.00,,---,0.00,VWS V14.01,2013-03-09 18:55:00,
2013-03-09 14:00:00,60.3,32.5,28.11,South,180,2.5,2.5,35,0.00,,---,0.00,VWS V14.01,2013-03-09 19:00:00,
2013-03-09 14:05:00,61.7,33.1,28.11,ESE,112,2.2,2.5,34,0.00,,---,0.00,VWS V14.01,2013-03-09 19:05:00,
2013-03-09 14:10:00,61.2,32.6,28.08,WNW,292,0.0,0.0,34,0.00,,---,0.00,VWS V14.01,2013-03-09 19:10:00,
2013-03-09 14:15:00,60.6,32.1,28.08,East,90,1.3,2.7,34,0.00,,---,0.00,VWS V14.01,2013-03-09 19:15:00,
2013-03-09 14:20:00,59.9,31.5,28.08,South,180,1.6,2.5,34,0.00,,---,0.00,VWS V14.01,2013-03-09 19:20:00,
2013-03-09 14:25:00,59.9,31.5,28.11,South,180,2.7,2.7,34,0.00,,---,0.00,VWS V14.01,2013-03-09 19:25:00,
2013-03-09 14:30:00,59.7,31.3,28.11,East,90,2.5,2.5,34,0.00,,---,0.00,VWS V14.01,2013-03-09 19:30:00,
2013-03-09 14:35:00,59.7,31.3,28.11,WSW,248,2.0,2.0,34,0.00,,---,0.00,VWS V14.01,2013-03-09 19:35:00,
2013-03-09 14:40:00,60.3,31.8,28.11,East,90,2.7,2.7,34,0.00,,---,0.00,VWS V14.01,2013-03-09 19:40:00,
2013-03-09 14:46:00,61.0,32.4,28.11,SW,225,0.0,1.3,34,0.00,,---,0.00,VWS V14.01,2013-03-09 19:46:00,
2013-03-09 14:51:00,60.6,32.1,28.11,SW,225,2.5,2.5,34,0.00,,---,0.00,VWS V14.01,2013-03-09 19:51:00,
2013-03-09 14:56:00,59.4,31.0,28.11,SSW,202,0.0,1.3,34,0.00,,---,0.00,VWS V14.01,2013-03-09 19:56:00,
2013-03-09 15:01:00,59.2,30.9,28.11,SW,225,0.0,0.0,34,0.00,,---,0.00,VWS V14.01,2013-03-09 20:01:00,
2013-03-09 15:06:00,59.0,30.7,28.11,SSW,202,2.0,2.0,34,0.00,,---,0.00,VWS V14.01,2013-03-09 20:06:00,
2013-03-09 15:11:00,58.8,31.2,28.08,SE,135,1.3,2.0,35,0.00,,---,0.00,VWS V14.01,2013-03-09 20:11:00,
2013-03-09 15:16:00,58.1,30.6,28.08,ESE,112,2.2,2.7,35,0.00,,---,0.00,VWS V14.01,2013-03-09 20:16:00,
2013-03-09 15:21:00,58.1,30.6,28.08,WSW,248,0.0,1.6,35,0.00,,---,0.00,VWS V14.01,2013-03-09 20:21:00,
2013-03-09 15:26:00,57.9,30.5,28.08,SE,135,1.6,2.5,35,0.00,,---,0.00,VWS V14.01,2013-03-09 20:26:00,
2013-03-09 15:31:00,57.7,30.3,28.08,SE,135,1.3,1.3,35,0.00,,---,0.00,VWS V14.01,2013-03-09 20:31:00,
2013-03-09 15:36:00,57.6,30.1,28.08,WSW,248,0.0,0.9,35,0.00,,---,0.00,VWS V14.01,2013-03-09 20:36:00,
2013-03-09 15:41:00,57.4,30.0,28.08,SW,225,1.1,1.1,35,0.00,,---,0.00,VWS V14.01,2013-03-09 20:41:00,
2013-03-09 15:46:00,57.6,30.1,28.08,SSW,202,0.0,0.0,35,0.00,,---,0.00,VWS V14.01,2013-03-09 20:46:00,
2013-03-09 15:51:00,57.6,30.1,28.08,ESE,112,1.3,2.7,35,0.00,,---,0.00,VWS V14.01,2013-03-09 20:51:00,
2013-03-09 15:56:00,57.6,30.1,28.08,ESE,112,0.0,0.0,35,0.00,,---,0.00,VWS V14.01,2013-03-09 20:56:00,
2013-03-09 16:01:00,57.4,30.0,28.08,SSW,202,2.0,2.0,35,0.00,,---,0.00,VWS V14.01,2013-03-09 21:01:00,
2013-03-09 16:06:00,57.2,29.8,28.08,ESE,112,1.1,1.3,35,0.00,,---,0.00,VWS V14.01,2013-03-09 21:06:00,
2013-03-09 16:11:00,57.2,29.8,28.08,WNW,292,0.0,0.0,35,0.00,,---,0.00,VWS V14.01,2013-03-09 21:11:00,
2013-03-09 16:16:00,57.2,29.8,28.08,SW,225,0.0,0.0,35,0.00,,---,0.00,VWS V14.01,2013-03-09 21:16:00,
2013-03-09 16:21:00,57.0,30.4,28.08,SSE,158,0.0,0.9,36,0.00,,---,0.00,VWS V14.01,2013-03-09 21:21:00,
2013-03-09 16:26:00,56.7,29.3,28.08,East,90,0.9,0.9,35,0.00,,---,0.00,VWS V14.01,2013-03-09 21:26:00,
2013-03-09 16:31:00,56.7,30.0,28.08,SW,225,0.0,0.0,36,0.00,,---,0.00,VWS V14.01,2013-03-09 21:31:00,
2013-03-09 16:36:00,55.9,28.7,28.08,South,180,0.9,1.6,35,0.00,,---,0.00,VWS V14.01,2013-03-09 21:36:00,
2013-03-09 16:41:00,55.9,29.4,28.08,East,90,0.0,0.0,36,0.00,,---,0.00,VWS V14.01,2013-03-09 21:41:00,
2013-03-09 16:47:00,55.9,29.4,28.08,East,90,2.5,3.1,36,0.00,,---,0.00,VWS V14.01,2013-03-09 21:47:00,
2013-03-09 16:52:00,55.8,29.2,28.08,ESE,112,1.3,1.3,36,0.00,,---,0.00,VWS V14.01,2013-03-09 21:52:00,
2013-03-09 16:57:00,55.6,29.1,28.08,ESE,112,0.0,0.0,36,0.00,,---,0.00,VWS V14.01,2013-03-09 21:57:00,
2013-03-09 17:02:00,55.4,28.9,28.08,South,180,0.0,2.0,36,0.00,,---,0.00,VWS V14.01,2013-03-09 22:02:00,
2013-03-09 17:07:00,55.2,28.8,28.08,East,90,0.0,0.0,36,0.00,,---,0.00,VWS V14.01,2013-03-09 22:07:00,
2013-03-09 17:12:00,55.2,28.8,28.08,South,180,0.0,1.1,36,0.00,,---,0.00,VWS V14.01,2013-03-09 22:12:00,
2013-03-09 17:17:00,55.2,28.8,28.08,ESE,112,0.9,1.3,36,0.00,,---,0.00,VWS V14.01,2013-03-09 22:17:00,
2013-03-09 17:22:00,55.9,29.4,28.08,East,90,0.0,1.1,36,0.00,,---,0.00,VWS V14.01,2013-03-09 22:22:00,
2013-03-09 17:27:00,56.5,29.9,28.08,SSW,202,0.9,0.9,36,0.00,,---,0.00,VWS V14.01,2013-03-09 22:27:00,
2013-03-09 17:32:00,57.0,30.4,28.08,East,90,2.0,2.0,36,0.00,,---,0.00,VWS V14.01,2013-03-09 22:32:00,
2013-03-09 17:37:00,56.5,29.9,28.08,SSE,158,3.1,4.9,36,0.00,,---,0.00,VWS V14.01,2013-03-09 22:37:00,
2013-03-09 17:42:00,56.1,29.5,28.08,East,90,1.3,1.3,36,0.00,,---,0.00,VWS V14.01,2013-03-09 22:42:00,
2013-03-09 17:47:00,55.6,29.1,28.08,ESE,112,0.0,0.9,36,0.00,,---,0.00,VWS V14.01,2013-03-09 22:47:00,
2013-03-09 17:52:00,54.9,28.4,28.05,ESE,112,1.3,2.9,36,0.00,,---,0.00,VWS V14.01,2013-03-09 22:52:00,
2013-03-09 17:57:00,54.5,28.1,28.05,ESE,112,0.0,0.0,36,0.00,,---,0.00,VWS V14.01,2013-03-09 22:57:00,
2013-03-09 18:03:00,54.3,28.0,28.05,ESE,112,4.0,4.0,36,0.00,,---,0.00,VWS V14.01,2013-03-09 23:03:00,
2013-03-09 18:08:00,54.0,28.3,28.05,ESE,112,0.0,2.2,37,0.00,,---,0.00,VWS V14.01,2013-03-09 23:08:00,
2013-03-09 18:13:00,53.8,28.1,28.05,East,90,1.6,1.6,37,0.00,,---,0.00,VWS V14.01,2013-03-09 23:13:00,
2013-03-09 18:18:00,53.4,27.8,28.05,East,90,2.5,2.5,37,0.00,,---,0.00,VWS V14.01,2013-03-09 23:18:00,
2013-03-09 18:23:00,53.1,27.5,28.08,ESE,112,2.5,2.5,37,0.00,,---,0.00,VWS V14.01,2013-03-09 23:23:00,
2013-03-09 18:28:00,52.9,27.3,28.08,East,90,0.0,0.0,37,0.00,,---,0.00,VWS V14.01,2013-03-09 23:28:00,
2013-03-09 18:33:00,52.7,27.2,28.08,East,90,0.0,1.6,37,0.00,,---,0.00,VWS V14.01,2013-03-09 23:33:00,
2013-03-09 18:38:00,52.3,26.9,28.08,East,90,2.0,2.0,37,0.00,,---,0.00,VWS V14.01,2013-03-09 23:38:00,
2013-03-09 18:43:00,52.2,26.7,28.08,ESE,112,0.0,0.0,37,0.00,,---,0.00,VWS V14.01,2013-03-09 23:43:00,
2013-03-09 18:48:00,51.6,26.9,28.08,ESE,112,0.9,0.9,38,0.00,,---,0.00,VWS V14.01,2013-03-09 23:48:00,
2013-03-09 18:53:00,51.4,26.7,28.08,SE,135,0.0,0.0,38,0.00,,---,0.00,VWS V14.01,2013-03-09 23:53:00,
2013-03-09 18:58:00,51.3,26.5,28.08,East,90,0.0,1.6,38,0.00,,---,0.00,VWS V14.01,2013-03-09 23:58:00,
2013-03-09 19:04:00,51.1,27.0,28.08,ENE,68,0.0,1.6,39,0.00,,---,0.00,VWS V14.01,2013-03-10 00:04:00,
2013-03-09 19:09:00,50.9,26.8,28.08,SSE,158,0.0,0.9,39,0.00,,---,0.00,VWS V14.01,2013-03-10 00:09:00,
2013-03-09 19:14:00,50.7,26.7,28.08,SE,135,1.6,2.7,39,0.00,,---,0.00,VWS V14.01,2013-03-10 00:14:00,
2013-03-09 19:19:00,50.5,26.5,28.08,East,90,0.0,0.9,39,0.00,,---,0.00,VWS V14.01,2013-03-10 00:19:00,
2013-03-09 19:24:00,50.4,26.4,28.08,ESE,112,0.0,2.2,39,0.00,,---,0.00,VWS V14.01,2013-03-10 00:24:00,
2013-03-09 19:29:00,50.2,26.2,28.08,West,270,0.0,0.0,39,0.00,,---,0.00,VWS V14.01,2013-03-10 00:29:00,
2013-03-09 19:34:00,50.2,26.2,28.08,South,180,1.3,1.3,39,0.00,,---,0.00,VWS V14.01,2013-03-10 00:34:00,
2013-03-09 19:39:00,49.8,26.5,28.08,NE,45,0.9,2.0,40,0.00,,---,0.00,VWS V14.01,2013-03-10 00:39:00,
2013-03-09 19:44:00,50.0,26.0,28.08,SE,135,4.3,4.3,39,0.00,,---,0.00,VWS V14.01,2013-03-10 00:44:00,
2013-03-09 19:49:00,49.8,26.5,28.08,ESE,112,2.0,2.0,40,0.00,,---,0.00,VWS V14.01,2013-03-10 00:49:00,
2013-03-09 19:54:00,49.8,26.5,28.08,ESE,112,2.7,2.7,40,0.00,,---,0.00,VWS V14.01,2013-03-10 00:54:00,
2013-03-09 19:59:00,49.8,26.5,28.08,South,180,2.5,2.5,40,0.00,,---,0.00,VWS V14.01,2013-03-10 00:59:00,
2013-03-09 20:04:00,49.8,26.5,28.08,ESE,112,0.0,1.1,40,0.00,,---,0.00,VWS V14.01,2013-03-10 01:04:00,
2013-03-09 20:10:00,49.8,26.5,28.08,SE,135,1.6,2.0,40,0.00,,---,0.00,VWS V14.01,2013-03-10 01:10:00,
2013-03-09 20:15:00,49.8,26.5,28.08,SSW,202,0.9,0.9,40,0.00,,---,0.00,VWS V14.01,2013-03-10 01:15:00,
2013-03-09 20:20:00,50.0,26.0,28.08,SW,225,0.0,1.1,39,0.00,,---,0.00,VWS V14.01,2013-03-10 01:20:00,
2013-03-09 20:25:00,50.2,26.2,28.08,ENE,68,1.6,2.2,39,0.00,,---,0.00,VWS V14.01,2013-03-10 01:25:00,
2013-03-09 20:30:00,50.2,26.2,28.08,North,0,0.9,1.3,39,0.00,,---,0.00,VWS V14.01,2013-03-10 01:30:00,
2013-03-09 20:35:00,50.2,26.2,28.08,ESE,112,0.0,1.3,39,0.00,,---,0.00,VWS V14.01,2013-03-10 01:35:00,
2013-03-09 20:40:00,50.4,26.4,28.08,East,90,2.5,7.2,39,0.00,,---,0.00,VWS V14.01,2013-03-10 01:40:00,
2013-03-09 20:45:00,50.2,26.2,28.08,SSE,158,1.1,1.6,39,0.00,,---,0.00,VWS V14.01,2013-03-10 01:45:00,
2013-03-09 20:50:00,50.2,26.2,28.08,East,90,0.9,0.9,39,0.00,,---,0.00,VWS V14.01,2013-03-10 01:50:00,
2013-03-09 20:55:00,50.2,26.2,28.05,ESE,112,2.7,2.7,39,0.00,,---,0.00,VWS V14.01,2013-03-10 01:55:00,
2013-03-09 21:00:00,50.2,26.2,28.05,SSE,158,0.9,2.0,39,0.00,,---,0.00,VWS V14.01,2013-03-10 02:00:00,
2013-03-09 21:05:00,50.0,26.0,28.05,West,270,0.0,0.0,39,0.00,,---,0.00,VWS V14.01,2013-03-10 02:05:00,
2013-03-09 21:11:00,50.0,26.0,28.05,SE,135,2.2,2.2,39,0.00,,---,0.00,VWS V14.01,2013-03-10 02:11:00,
2013-03-09 21:16:00,49.8,26.5,28.05,East,90,2.5,2.5,40,0.00,,---,0.00,VWS V14.01,2013-03-10 02:16:00,
2013-03-09 21:21:00,49.8,26.5,28.05,SE,135,3.4,3.4,40,0.00,,---,0.00,VWS V14.01,2013-03-10 02:21:00,
2013-03-09 21:26:00,49.8,26.5,28.05,East,90,2.0,2.5,40,0.00,,---,0.00,VWS V14.01,2013-03-10 02:26:00,
2013-03-09 21:31:00,50.0,26.0,28.05,ENE,68,2.2,5.8,39,0.00,,---,0.00,VWS V14.01,2013-03-10 02:31:00,
2013-03-09 21:36:00,50.0,26.0,28.05,ESE,112,3.6,4.3,39,0.00,,---,0.00,VWS V14.01,2013-03-10 02:36:00,
2013-03-09 21:41:00,50.0,26.0,28.05,ENE,68,2.5,2.5,39,0.00,,---,0.00,VWS V14.01,2013-03-10 02:41:00,
2013-03-09 21:46:00,50.0,26.0,28.05,SSW,202,2.2,2.2,39,0.00,,---,0.00,VWS V14.01,2013-03-10 02:46:00,
2013-03-09 21:51:00,50.0,26.0,28.05,ESE,112,0.9,2.0,39,0.00,,---,0.00,VWS V14.01,2013-03-10 02:51:00,
2013-03-09 21:56:00,50.2,26.2,28.05,ENE,68,0.0,1.1,39,0.00,,---,0.00,VWS V14.01,2013-03-10 02:56:00,
2013-03-09 22:01:00,50.2,26.2,28.05,ESE,112,2.7,3.1,39,0.00,,---,0.00,VWS V14.01,2013-03-10 03:01:00,
2013-03-09 22:06:00,50.4,26.4,28.05,West,270,0.0,2.9,39,0.00,,---,0.00,VWS V14.01,2013-03-10 03:06:00,
2013-03-09 22:12:00,50.5,26.5,28.05,SSE,158,2.7,3.1,39,0.00,,---,0.00,VWS V14.01,2013-03-10 03:12:00,
2013-03-09 22:17:00,50.7,26.7,28.05,SSW,202,0.0,2.7,39,0.00,,---,0.00,VWS V14.01,2013-03-10 03:17:00,
2013-03-09 22:22:00,50.7,26.7,28.08,ESE,112,1.1,1.1,39,0.00,,---,0.00,VWS V14.01,2013-03-10 03:22:00,
2013-03-09 22:27:00,50.7,26.7,28.08,ENE,68,2.2,3.8,39,0.00,,---,0.00,VWS V14.01,2013-03-10 03:27:00,
2013-03-09 22:32:00,50.7,26.7,28.08,WNW,292,2.2,2.7,39,0.00,,---,0.00,VWS V14.01,2013-03-10 03:32:00,
2013-03-09 22:37:00,50.7,26.7,28.05,SE,135,0.0,1.3,39,0.00,,---,0.00,VWS V14.01,2013-03-10 03:37:00,
2013-03-09 22:42:00,50.7,26.7,28.05,East,90,3.4,3.4,39,0.00,,---,0.00,VWS V14.01,2013-03-10 03:42:00,
2013-03-09 22:47:00,50.9,26.8,28.05,WSW,248,1.6,4.7,39,0.00,,---,0.00,VWS V14.01,2013-03-10 03:47:00,
2013-03-09 22:52:00,50.7,26.7,28.05,SSE,158,0.0,1.6,39,0.00,,---,0.00,VWS V14.01,2013-03-10 03:52:00,
2013-03-09 22:57:00,50.7,26.7,28.05,East,90,2.7,3.8,39,0.00,,---,0.00,VWS V14.01,2013-03-10 03:57:00,
2013-03-09 23:02:00,50.7,26.7,28.05,ENE,68,6.3,6.3,39,0.00,,---,0.00,VWS V14.01,2013-03-10 04:02:00,
2013-03-09 23:07:00,50.7,26.7,28.05,East,90,3.6,8.5,39,0.00,,---,0.00,VWS V14.01,2013-03-10 04:07:00,
2013-03-09 23:12:00,50.7,26.7,28.05,East,90,2.9,5.8,39,0.00,,---,0.00,VWS V14.01,2013-03-10 04:12:00,
2013-03-09 23:17:00,50.5,26.5,28.05,ESE,112,2.5,2.5,39,0.00,,---,0.00,VWS V14.01,2013-03-10 04:17:00,
2013-03-09 23:22:00,50.5,26.5,28.05,ESE,112,0.9,0.9,39,0.00,,---,0.00,VWS V14.01,2013-03-10 04:22:00,
2013-03-09 23:27:00,50.5,26.5,28.05,SE,135,3.4,4.0,39,0.00,,---,0.00,VWS V14.01,2013-03-10 04:27:00,
2013-03-09 23:32:00,50.7,26.7,28.05,East,90,3.4,3.4,39,0.00,,---,0.00,VWS V14.01,2013-03-10 04:32:00,
2013-03-09 23:37:00,50.7,26.7,28.05,ENE,68,5.6,5.6,39,0.00,,---,0.00,VWS V14.01,2013-03-10 04:37:00,
2013-03-09 23:42:00,50.7,26.7,28.05,NNE,22,0.0,0.0,39,0.00,,---,0.00,VWS V14.01,2013-03-10 04:42:00,
2013-03-09 23:47:00,50.7,26.7,28.05,East,90,1.3,3.6,39,0.00,,---,0.00,VWS V14.01,2013-03-10 04:47:00,
2013-03-09 23:52:00,50.5,26.5,28.05,SSE,158,2.2,2.2,39,0.00,,---,0.00,VWS V14.01,2013-03-10 04:52:00,
2013-03-09 23:57:00,50.5,26.5,28.05,ESE,112,0.9,1.3,39,0.00,,---,0.00,VWS V14.01,2013-03-10 04:57:00,